This demonstration page uses our WeatherBlox Daily Observations layout. Learn more.

Hourly Observations for June 30, 2017

Temp ( °F °C ) Dew Point ( °F °C ) Humidity (%) Winds ( mph kmh ) Pressure ( in mb ) Visibility ( mi km ) Precip ( " mm )
12:28 am 00:28 Mostly Clear 69 20.6 66 18.9 90 90 Calm 29.85 1011 10 16.0934 0 0
12:54 am 00:54 Mostly Cloudy 69 20.6 67 19.4 93 93 N 7 11 29.83 1010 10 16.0934 0 0
1:54 am 01:54 Mostly Clear 67 19.4 65 18.3 93 93 E 5 7 29.82 1010 10 16.0934 0 0
2:54 am 02:54 Clear 68 20 65 18.3 90 90 NW 6 9 29.88 1012 10 16.0934 0 0
3:54 am 03:54 Clear 67 19.4 64 17.8 91 91 N 7 11 29.87 1012 10 16.0934 0 0
4:54 am 04:54 Clear 65 18.3 62 16.7 90 90 N 6 9 29.88 1012 10 16.0934 0 0
5:54 am 05:54 Clear 64 17.8 61 16.1 90 90 N 8 13 29.89 1012 10 16.0934 0 0
6:54 am 06:54 Sunny 64 17.8 60 15.6 87 87 NNW 8 13 29.91 1013 10 16.0934 0 0
7:54 am 07:54 Sunny 66 18.9 61 16.1 84 84 NNW 10 17 29.95 1014 10 16.0934 0 0
8:54 am 08:54 Sunny 66 18.9 60 15.6 81 81 N 7 11 29.97 1015 10 16.0934 0 0
9:54 am 09:54 Sunny 71 21.7 62 16.7 73 73 NNW 9 15 29.97 1015 10 16.0934 0 0
10:54 am 10:54 Sunny 75 23.9 58 14.4 55 55 NNW 13 20 29.96 1015 10 16.0934 0 0
11:54 am 11:54 Sunny 77 25 59 15 54 54 N 13 20 29.95 1014 10 16.0934 0 0
12:54 pm 12:54 Sunny 79 26.1 56 13.3 45 45 N 13 20 29.94 1014 10 16.0934 0 0
1:54 pm 13:54 Sunny 79 26.1 56 13.3 45 45 NNW 13 20 29.96 1015 10 16.0934 0 0
2:54 pm 14:54 Partly Cloudy 77 25 56 13.3 48 48 WNW 12 19 29.98 1015 10 16.0934 0 0
3:54 pm 15:54 Mostly Sunny 78 25.6 57 13.9 48 48 WNW 9 15 29.99 1016 10 16.0934 0 0
4:54 pm 16:54 Mostly Sunny 77 25 60 15.6 56 56 W 10 17 29.97 1015 10 16.0934 0 0
5:54 pm 17:54 Sunny 77 25 59 15 54 54 SW 13 20 29.96 1015 10 16.0934 0 0
6:54 pm 18:54 Sunny 75 23.9 60 15.6 60 60 WSW 10 17 29.97 1015 10 16.0934 0 0
7:54 pm 19:54 Sunny with Nearby Thunderstorms 75 23.9 60 15.6 60 60 W 8 13 29.96 1015 10 16.0934 0 0
8:28 pm 20:28 Mostly Cloudy 68 20 59 15 73 73 NE 10 17 29.97 1015 10 16.0934 0 0
8:54 pm 20:54 Sunny 67 19.4 57 13.9 71 71 ENE 7 11 29.98 1015 10 16.0934 0 0
9:54 pm 21:54 Cloudy 66 18.9 57 13.9 73 73 NE 3 6 29.98 1015 10 16.0934 0 0
10:54 pm 22:54 Clear 66 18.9 58 14.4 75 75 W 5 7 30 1016 10 16.0934 0 0
11:54 pm 23:54 Clear 65 18.3 58 14.4 78 78 W 3 6 30.02 1017 10 16.0934 0 0

Powered by AerisWeather